• In Netherlands
  • List of Countries
  • For 7 days
  • Water Temperature
  • Satellite Maps
  • Weather Map
  • Weather Widgets
  • user-avatar
    Login

    Hourly Weather Artashat

    Today, 18 January, Wednesday

    Time Temperature Precipitation Wind Pressure Humidity
    00:00 -12°C° 0 mm 1 mps 596 mmHg 76%
    01:00 -12°C° 0 mm 1 mps 596 mmHg 75%
    02:00 -12°C° 0 mm 1 mps 596 mmHg 75%
    03:00 -12°C° 0 mm 1 mps 596 mmHg 74%
    04:00 -12°C° 0 mm 1 mps 596 mmHg 73%
    05:00 -11°C° 0 mm 1 mps 596 mmHg 73%
    06:00 -11°C° 0 mm 1 mps 596 mmHg 73%
    07:00 -10°C° 0 mm 1 mps 597 mmHg 71%
    08:00 -8°C° 0 mm 1 mps 598 mmHg 70%
    09:00 -4°C° 0 mm 1 mps 600 mmHg 70%
    10:00 -3°C° 0 mm 1 mps 600 mmHg 69%
    11:00 -2°C° 0 mm 1 mps 600 mmHg 69%
    12:00 -1°C° 0 mm 1 mps 601 mmHg 68%
    13:00 -1°C° 0 mm 1 mps 600 mmHg 71%
    14:00 -1°C° 0 mm 1 mps 600 mmHg 74%
    15:00 -1°C° 0 mm 1 mps 599 mmHg 76%
    16:00 -4°C° 0 mm 1 mps 598 mmHg 78%
    17:00 -8°C° 0 mm 1 mps 597 mmHg 80%
    18:00 -10°C° 0 mm 1 mps 596 mmHg 81%
    19:00 -11°C° 0 mm 1 mps 596 mmHg 80%
    20:00 -11°C° 0 mm 1 mps 596 mmHg 78%
    21:00 -11°C° 0 mm 1 mps 596 mmHg 77%
    22:00 -11°C° 0 mm 1 mps 596 mmHg 76%
    23:00 -11°C° 0 mm 1 mps 596 mmHg 74%

    Tomorrow, 19 January, Thursday

    Time Temperature Precipitation Wind Pressure Humidity
    00:00 -11°C° 0 mm 1 mps 596 mmHg 73%
    01:00 -11°C° 0 mm 1 mps 596 mmHg 73%
    02:00 -11°C° 0 mm 1 mps 596 mmHg 73%
    03:00 -11°C° 0 mm 1 mps 596 mmHg 73%
    04:00 -13°C° 0 mm 2 mps 596 mmHg 73%
    05:00 -13°C° 0 mm 2 mps 596 mmHg 74%
    06:00 -13°C° 0 mm 2 mps 596 mmHg 74%
    07:00 -10°C° 0 mm 1 mps 597 mmHg 73%
    08:00 -9°C° 0 mm 1 mps 598 mmHg 73%
    09:00 -8°C° 0 mm 1 mps 599 mmHg 72%
    10:00 -6°C° 0 mm 1 mps 599 mmHg 72%
    11:00 -3°C° 0 mm 1 mps 600 mmHg 71%
    12:00 -1°C° 0 mm 1 mps 600 mmHg 71%
    13:00 -2°C° 0 mm 1 mps 600 mmHg 73%
    14:00 -2°C° 0 mm 1 mps 599 mmHg 76%
    15:00 -2°C° 0 mm 1 mps 599 mmHg 78%
    16:00 -7°C° 0 mm 1 mps 598 mmHg 82%
    17:00 -10°C° 0 mm 1 mps 596 mmHg 85%
    18:00 -13°C° 0 mm 0 mps 595 mmHg 89%
    19:00 -13°C° 0 mm 1 mps 595 mmHg 89%
    20:00 -13°C° 0 mm 1 mps 595 mmHg 88%
    21:00 -13°C° 0 mm 1 mps 595 mmHg 88%
    22:00 -13°C° 0 mm 1 mps 595 mmHg 87%
    23:00 -13°C° 0 mm 1 mps 595 mmHg 87%

    Day after tomorrow, 20 January, Friday

    Time Temperature Precipitation Wind Pressure Humidity
    00:00 -13°C° 0 mm 1 mps 595 mmHg 87%
    01:00 -13°C° 0 mm 1 mps 595 mmHg 87%
    02:00 -13°C° 0 mm 1 mps 595 mmHg 86%
    03:00 -13°C° 0 mm 0 mps 596 mmHg 86%
    04:00 -13°C° 0 mm 0 mps 596 mmHg 86%
    05:00 -13°C° 0 mm 0 mps 596 mmHg 86%
    06:00 -13°C° 0 mm 0 mps 596 mmHg 86%
    07:00 -11°C° 0 mm 0 mps 597 mmHg 84%
    08:00 -9°C° 0 mm 0 mps 598 mmHg 82%
    09:00 -8°C° 0 mm 0 mps 599 mmHg 80%
    10:00 -7°C° 0 mm 0 mps 600 mmHg 77%
    11:00 -5°C° 0 mm 0 mps 600 mmHg 74%
    12:00 -3°C° 0 mm 1 mps 600 mmHg 70%
    13:00 -3°C° 0 mm 1 mps 600 mmHg 73%
    14:00 -3°C° 0 mm 1 mps 600 mmHg 75%
    15:00 -4°C° 0 mm 1 mps 599 mmHg 77%
    16:00 -7°C° 0 mm 1 mps 598 mmHg 82%
    17:00 -9°C° 0 mm 0 mps 597 mmHg 87%
    18:00 -12°C° 0 mm 0 mps 596 mmHg 92%
    19:00 -12°C° 0 mm 0 mps 596 mmHg 92%
    20:00 -13°C° 0 mm 0 mps 596 mmHg 91%
    21:00 -14°C° 0 mm 0 mps 596 mmHg 90%
    22:00 -14°C° 0 mm 0 mps 596 mmHg 90%
    23:00 -14°C° 0 mm 0 mps 596 mmHg 90%

    21 January, Saturday

    Time Temperature Precipitation Wind Pressure Humidity
    00:00 -15°C° 0 mm 0 mps 596 mmHg 90%
    01:00 -15°C° 0 mm 0 mps 595 mmHg 90%
    02:00 -15°C° 0 mm 0 mps 595 mmHg 90%
    03:00 -16°C° 0 mm 0 mps 595 mmHg 89%
    04:00 -16°C° 0 mm 0 mps 595 mmHg 89%
    05:00 -16°C° 0 mm 0 mps 595 mmHg 89%
    06:00 -16°C° 0 mm 0 mps 595 mmHg 89%
    07:00 -14°C° 0 mm 0 mps 596 mmHg 87%
    08:00 -13°C° 0 mm 0 mps 597 mmHg 84%
    09:00 -11°C° 0 mm 0 mps 598 mmHg 82%
    10:00 -9°C° 0 mm 0 mps 599 mmHg 77%
    11:00 -7°C° 0 mm 0 mps 599 mmHg 73%
    12:00 -6°C° 0 mm 1 mps 600 mmHg 68%
    13:00 -6°C° 0 mm 1 mps 599 mmHg 70%
    14:00 -6°C° 0 mm 1 mps 599 mmHg 72%
    15:00 -6°C° 0 mm 1 mps 598 mmHg 73%
    16:00 -9°C° 0 mm 1 mps 597 mmHg 78%
    17:00 -12°C° 0 mm 0 mps 595 mmHg 83%
    18:00 -15°C° 0 mm 0 mps 594 mmHg 88%
    19:00 -15°C° 0 mm 0 mps 594 mmHg 88%
    20:00 -15°C° 0 mm 0 mps 594 mmHg 87%
    21:00 -16°C° 0 mm 1 mps 594 mmHg 86%
    22:00 -16°C° 0 mm 1 mps 594 mmHg 85%
    23:00 -15°C° 0 mm 1 mps 594 mmHg 84%

    22 January, Sunday

    Time Temperature Precipitation Wind Pressure Humidity
    00:00 -15°C° 0 mm 1 mps 594 mmHg 83%
    01:00 -15°C° 0 mm 1 mps 594 mmHg 82%
    02:00 -15°C° 0 mm 1 mps 594 mmHg 81%
    03:00 -15°C° 0 mm 1 mps 594 mmHg 81%
    04:00 -15°C° 0 mm 1 mps 594 mmHg 80%
    05:00 -15°C° 0 mm 1 mps 594 mmHg 79%
    06:00 -15°C° 0 mm 1 mps 594 mmHg 79%
    07:00 -14°C° 0 mm 1 mps 595 mmHg 77%
    08:00 -13°C° 0 mm 1 mps 596 mmHg 75%
    09:00 -11°C° 0 mm 1 mps 597 mmHg 72%
    10:00 -9°C° 0 mm 1 mps 598 mmHg 69%
    11:00 -8°C° 0 mm 1 mps 598 mmHg 66%
    12:00 -6°C° 0 mm 1 mps 599 mmHg 64%
    13:00 -6°C° 0 mm 1 mps 598 mmHg 65%
    14:00 -6°C° 0 mm 1 mps 598 mmHg 66%
    15:00 -6°C° 0 mm 1 mps 598 mmHg 68%
    16:00 -9°C° 0 mm 1 mps 597 mmHg 71%
    17:00 -12°C° 0 mm 1 mps 596 mmHg 75%
    18:00 -14°C° 0 mm 1 mps 595 mmHg 79%
    19:00 -14°C° 0 mm 1 mps 595 mmHg 77%
    20:00 -14°C° 0 mm 1 mps 596 mmHg 75%
    21:00 -14°C° 0 mm 1 mps 596 mmHg 73%
    22:00 -16°C° 0 mm 2 mps 596 mmHg 72%
    23:00 -15°C° 0 mm 2 mps 597 mmHg 71%

    23 January, Monday

    Time Temperature Precipitation Wind Pressure Humidity
    00:00 -15°C° 0 mm 2 mps 597 mmHg 70%
    01:00 -15°C° 0 mm 2 mps 598 mmHg 71%
    02:00 -14°C° 0 mm 2 mps 598 mmHg 72%
    03:00 -14°C° 0 mm 2 mps 598 mmHg 72%
    04:00 -14°C° 0 mm 2 mps 599 mmHg 74%
    05:00 -15°C° 0 mm 2 mps 600 mmHg 76%
    06:00 -16°C° 0 mm 3 mps 600 mmHg 78%
    07:00 -16°C° 0 mm 3 mps 601 mmHg 74%
    08:00 -16°C° 0 mm 3 mps 602 mmHg 71%
    09:00 -16°C° 0 mm 3 mps 603 mmHg 68%
    10:00 -15°C° 0 mm 3 mps 604 mmHg 64%
    11:00 -14°C° 0 mm 3 mps 604 mmHg 60%
    12:00 -12°C° 0 mm 3 mps 605 mmHg 56%
    13:00 -12°C° 0 mm 3 mps 605 mmHg 57%
    14:00 -10°C° 0 mm 2 mps 605 mmHg 58%
    15:00 -10°C° 0 mm 2 mps 604 mmHg 59%
    16:00 -12°C° 0 mm 1 mps 603 mmHg 65%
    17:00 -15°C° 0 mm 1 mps 602 mmHg 70%
    18:00 -18°C° 0 mm 1 mps 601 mmHg 76%
    19:00 -18°C° 0 mm 1 mps 601 mmHg 75%
    20:00 -18°C° 0 mm 1 mps 601 mmHg 75%
    21:00 -19°C° 0 mm 1 mps 601 mmHg 75%
    22:00 -19°C° 0 mm 1 mps 601 mmHg 74%
    23:00 -19°C° 0 mm 1 mps 601 mmHg 73%
    Show more